Flag for Belgium Weather past 2 weeks in Brussels, Belgium

61 °F

Passing clouds.

Feels Like: 61 °F
Forecast: 55 / 62 °F
Wind: 7 mph from South

Location: Brussels National Airport

Current Time: Oct 6, 2015 at 10:57:35 PM

Latest Report: Oct 6, 2015 at 10:20 PM

Visibility: N/A

Pressure: 29.59 "Hg

Humidity: 88%

Dew point: 57 °F

Location of BrusselsLocation

Historic Weather in Brussels — Graph


Brussels temperature yesterday

Maximum temperature yesterday: 63 °F (at 2:50 PM)
Minimum temperature yesterday: 50 °F (at 4:20 AM)
Average temperature yesterday: 56 °F

Past Weeks' High & Low Weather Summary

High68 °F (Oct 3, 4:20 PM)100% (Sep 23, 4:50 AM)30.63 "Hg (Sep 23, 4:50 AM)
Low37 °F (Oct 2, 5:20 AM)45% (Sep 30, 2:20 PM)29.50 "Hg (Sep 22, 2:20 PM)
Average53 °F81%30.14 "Hg
* Reported Sep 21 9:20 PM — Oct 6 9:50 PM, Brussels, Weather by CustomWeather, © 2015

Note: Actual official high and low records may vary slightly from our data, if they occured in-between our weather recording intervals... More about our weather records


Brussels weather history for previous 24 hours

Time TempWeatherWind HumidityBarometerVisibility
9:50 PM
Tue, Oct 6
61 °FPassing clouds.9 mph88%29.59 "HgN/A
9:20 PM61 °FPassing clouds.8 mph88%29.59 "HgN/A
8:50 PM61 °FPassing clouds.5 mph94%29.59 "HgN/A
8:20 PM61 °FPassing clouds.2 mph88%29.59 "HgN/A
7:50 PM61 °FPassing clouds.5 mph88%29.56 "HgN/A
7:20 PM63 °FScattered clouds.8 mph83%29.56 "HgN/A
6:50 PM64 °FScattered clouds.7 mph88%29.56 "HgN/A
6:20 PM64 °FScattered clouds.6 mph88%29.56 "HgN/A
5:50 PM66 °FScattered clouds.6 mph83%29.53 "HgN/A
5:20 PM66 °FScattered clouds.7 mph83%29.53 "HgN/A
4:50 PM64 °FPartly sunny.8 mph88%29.56 "HgN/A
4:20 PM64 °FScattered clouds.8 mph88%29.53 "HgN/A
3:50 PM64 °FScattered clouds.8 mph88%29.56 "HgN/A
3:20 PM63 °FScattered clouds.9 mph94%29.56 "HgN/A
2:50 PM63 °FScattered clouds.7 mph94%29.56 "HgN/A
2:20 PM63 °FScattered clouds.6 mph94%29.56 "HgN/A
1:50 PM63 °FScattered clouds.5 mph94%29.56 "HgN/A
1:20 PM63 °FScattered clouds.3 mph94%29.59 "HgN/A
12:50 PM63 °FLight rain. Partly sunny.3 mph94%29.59 "Hg6 mi
12:20 PM63 °FLight rain. Partly sunny.6 mph88%29.59 "Hg4 mi
11:50 AM61 °FPartly sunny.8 mph94%29.59 "HgN/A
11:20 AM63 °FPartly sunny.7 mph88%29.59 "HgN/A
10:50 AM61 °FBroken clouds.6 mph94%29.59 "Hg6 mi
10:20 AM59 °FBroken clouds.5 mph94%29.59 "Hg5 mi
9:50 AM59 °FBroken clouds.5 mph94%29.59 "Hg4 mi
9:20 AM59 °FFog.3 mph94%29.59 "Hg3 mi
8:50 AM59 °FFog.5 mph94%29.59 "Hg2 mi
8:20 AM57 °FFog.5 mph100%29.59 "Hg3 mi
7:50 AM57 °FFog.6 mph100%29.59 "Hg3 mi
7:20 AM57 °FPartly cloudy.5 mph94%29.59 "Hg4 mi
6:50 AM57 °FPartly cloudy.6 mph94%29.62 "Hg4 mi
6:20 AM57 °FFog.6 mph94%29.62 "Hg3 mi
5:50 AM57 °FFog.5 mph94%29.62 "Hg3 mi
4:50 AM57 °FDrizzle. Fog.5 mph100%29.62 "Hg2 mi
4:20 AM57 °FDrizzle. Fog.3 mph100%29.59 "Hg1 mi
3:50 AM57 °FLight rain. Fog.5 mph94%29.59 "Hg1 mi
3:20 AM57 °FLight rain. Fog.5 mph94%29.59 "Hg1 mi
2:50 AM57 °FLight rain. Fog.5 mph94%29.59 "Hg1 mi
2:20 AM57 °FLight rain. Fog.3 mph94%29.59 "Hg1 mi
1:50 AM57 °FLight rain. Fog.3 mph94%29.59 "Hg2 mi
1:20 AM57 °FRain. Passing clouds.6 mph100%29.62 "Hg1 mi
12:50 AM57 °FRain. Passing clouds.6 mph100%29.62 "Hg1 mi
12:20 AM57 °FRain. Passing clouds.5 mph94%29.65 "Hg1 mi
11:50 PM
Mon, Oct 5
57 °FRain. Passing clouds.6 mph100%29.65 "Hg2 mi
10:50 PM57 °FRain. Passing clouds.5 mph100%29.68 "Hg3 mi
10:20 PM57 °FRain. Passing clouds.6 mph100%29.68 "Hg3 mi
Weather by CustomWeather, © 2015

See weather overviewHow to use our weather pages